Theta_e
340 342 340 336 337 340 341 340 340 337 333 332 332 329 320 315 315 316 317 317 319 323 328 331 333 331 321 316 322 324 326 328 329 330 330 330 330 328 326 327 329 329 329 329 330 330 332 334 334 334 334 334 333 334 333 331 330 330 329 329 330 330
337 340 341 337 334 335 337 337 339 338 335 332 331 330 322 315 315 316 317 317 318 323 329 331 333 331 320 318 323 326 328 328 329 330 330 330 329 328 326 328 331 331 331 331 331 331 332 333 334 333 333 333 333 334 333 331 331 330 330 329 330 331
337 340 341 337 332 331 333 335 337 336 334 333 331 331 325 316 315 317 317 317 319 322 328 331 333 331 321 319 323 326 328 328 328 329 329 330 329 328 326 329 330 331 332 331 332 331 332 332 333 333 333 333 334 335 334 333 331 331 331 329 331 331
340 341 341 336 332 332 333 335 338 336 334 334 332 332 329 318 315 317 317 317 319 323 328 331 332 331 325 321 323 326 327 328 328 329 329 330 330 328 327 330 331 331 331 331 331 331 331 332 333 333 332 333 335 335 334 333 332 331 331 331 331 331
342 342 340 337 334 333 333 335 337 336 335 335 333 332 330 321 315 316 317 317 319 323 327 331 330 330 328 323 323 326 326 327 327 328 329 329 330 329 328 330 331 331 332 331 331 331 331 331 332 333 332 332 334 335 333 333 332 331 331 331 331 331
344 344 342 339 335 331 332 334 336 336 335 337 334 332 330 322 316 316 317 317 319 323 326 329 330 329 329 326 324 326 327 327 327 328 328 329 330 328 329 330 331 331 331 331 331 331 330 331 332 332 332 332 334 334 332 332 332 331 331 331 332 332
343 342 341 340 337 332 331 333 336 338 336 337 335 332 330 322 316 316 316 318 319 323 326 328 329 330 332 330 328 328 328 327 326 327 328 329 329 329 330 331 331 331 331 331 331 331 330 330 332 332 331 333 334 333 331 332 332 331 331 331 332 332
341 340 338 340 341 337 334 334 336 339 336 336 336 333 331 322 316 316 316 318 319 323 327 328 328 331 333 331 330 330 329 329 328 328 328 328 329 329 330 330 331 331 331 331 331 330 330 330 331 331 332 333 333 332 331 331 331 332 331 331 332 332
338 339 338 338 341 340 339 336 335 337 337 336 335 334 332 323 316 315 316 318 319 323 327 327 326 329 332 330 329 329 329 330 330 330 330 329 329 329 330 330 330 331 331 332 331 330 330 330 331 331 332 333 333 333 332 330 330 332 332 331 331 331
337 339 339 337 338 340 340 338 337 338 337 336 337 337 334 326 317 315 316 318 319 323 326 327 326 327 329 329 328 328 328 329 330 331 331 330 329 329 330 329 330 331 331 332 331 330 330 331 331 332 332 333 333 334 332 329 330 331 332 331 331 331
336 338 338 337 337 340 339 336 337 339 337 336 338 338 336 328 318 315 316 318 319 322 326 327 326 326 326 327 328 327 327 328 329 330 331 331 330 330 330 329 330 331 331 332 331 330 330 331 331 332 332 333 333 333 332 330 329 330 331 331 330 330
334 336 337 336 338 339 337 333 334 337 337 336 338 338 337 331 320 315 316 318 319 321 325 326 325 326 326 327 327 327 328 327 328 328 330 331 331 331 330 329 331 331 331 332 332 331 330 330 331 331 332 332 332 333 332 330 329 329 331 331 331 331
333 334 336 337 337 337 335 335 337 338 338 336 335 335 335 332 322 316 316 317 319 320 322 324 323 324 326 327 327 327 327 327 327 328 328 330 331 332 331 330 331 331 331 332 332 331 330 331 331 331 332 332 332 333 332 332 331 329 330 331 331 331
333 334 335 336 337 336 336 338 338 337 337 334 332 334 334 332 325 317 316 317 319 321 321 322 322 322 324 326 327 327 326 326 326 327 328 329 331 332 332 331 331 331 332 332 332 331 331 332 331 331 332 332 332 333 333 333 333 330 329 330 332 332
334 335 334 335 337 336 335 335 335 335 335 331 331 334 334 332 327 319 317 317 317 320 321 322 323 323 324 324 325 327 327 325 326 328 330 330 331 331 333 333 331 331 332 332 331 331 331 331 331 332 332 331 331 332 333 334 334 331 328 329 331 332
334 335 334 335 337 337 335 333 333 333 331 329 332 334 332 331 329 321 317 317 317 319 319 321 324 325 325 325 325 327 327 326 328 331 331 332 331 330 333 333 331 331 332 333 331 330 331 330 331 332 332 331 331 331 332 334 334 333 329 328 330 331
332 334 335 335 336 337 337 334 332 332 330 329 332 333 331 329 329 324 318 319 321 320 320 319 321 325 326 326 326 329 331 330 330 331 331 333 332 331 333 333 332 331 332 333 331 329 330 330 331 332 332 332 331 331 331 333 334 334 332 330 329 331
333 335 334 334 336 337 337 336 334 333 330 329 330 331 331 330 329 325 319 319 323 324 326 324 320 323 326 326 327 331 334 333 332 331 330 332 333 332 333 333 332 332 332 332 331 329 329 331 331 331 332 332 332 332 333 333 333 334 335 332 329 329
332 334 334 334 335 337 336 335 336 334 331 329 328 329 332 330 328 327 321 319 322 325 327 330 327 325 325 326 329 332 333 334 333 333 331 331 333 333 333 333 333 333 332 332 331 329 328 330 331 331 331 332 333 333 333 334 334 334 336 334 330 329
328 329 332 334 335 336 334 333 334 333 333 331 327 327 329 328 326 326 325 321 321 322 324 329 332 330 327 328 330 331 332 333 334 333 332 331 331 332 332 333 334 334 333 331 331 330 328 330 331 332 332 333 334 335 335 335 335 335 336 335 332 330
327 327 329 331 333 335 333 329 329 330 333 332 328 326 327 328 327 326 327 326 322 320 320 324 329 331 330 331 331 332 332 332 333 333 333 331 330 330 331 332 333 334 334 332 330 328 328 329 331 333 334 335 336 335 336 336 336 336 336 336 334 332
323 326 328 329 330 333 333 330 328 327 328 329 329 329 328 328 330 330 332 333 327 325 324 325 327 329 331 332 331 332 332 332 332 332 333 332 330 329 329 330 331 332 333 332 330 328 328 329 330 332 333 336 337 336 337 336 337 337 337 336 335 334
321 321 324 328 329 329 331 333 332 328 324 325 327 329 330 330 330 331 333 334 333 331 331 331 330 329 330 332 331 330 331 331 332 332 332 332 331 329 328 327 327 327 328 329 329 329 329 329 330 332 332 335 336 336 337 337 337 338 337 337 335 334
322 321 320 325 329 329 330 330 330 330 327 326 327 326 327 329 329 329 330 332 332 331 331 331 330 328 328 330 330 330 329 329 330 331 332 332 330 329 328 326 324 324 325 325 326 327 328 328 330 332 332 335 336 336 337 337 336 337 338 337 336 335
321 322 322 322 323 326 330 330 328 328 329 328 328 327 326 328 328 329 330 330 329 329 330 329 328 328 328 328 329 329 328 328 328 328 329 330 330 328 328 327 324 324 324 323 322 323 326 326 328 332 333 333 336 337 336 335 336 337 337 337 336 335
320 321 323 323 321 321 326 330 329 328 327 326 327 327 327 327 328 329 330 330 329 329 331 331 329 329 330 329 328 328 329 330 329 328 328 328 328 327 329 331 329 326 326 324 321 320 323 325 326 330 333 333 334 335 334 334 337 337 337 337 337 336
320 320 321 323 322 321 322 325 328 329 328 327 325 325 326 327 327 327 328 329 329 329 329 330 330 330 331 330 329 329 329 331 331 331 331 329 328 326 327 331 334 331 329 328 325 320 320 323 324 328 332 334 333 333 333 333 335 336 336 337 336 336
318 319 320 321 321 321 321 322 323 326 329 329 328 326 325 325 325 327 330 329 329 328 327 327 328 330 333 332 332 330 328 328 329 331 331 330 329 327 325 327 332 334 333 331 330 325 320 320 321 323 328 333 335 334 334 333 333 335 335 335 334 335
316 317 319 320 320 320 321 321 321 322 325 327 330 329 327 326 326 328 332 331 329 328 327 326 326 327 332 334 333 332 329 328 328 328 328 327 328 328 327 325 328 333 334 333 332 328 323 320 319 319 321 327 334 335 334 334 334 334 335 334 334 333
314 315 317 318 319 320 319 320 320 320 321 322 325 328 328 327 327 328 330 329 329 329 328 328 327 326 330 333 333 332 331 330 330 330 328 328 329 329 330 328 326 328 329 330 331 329 326 322 320 319 318 320 328 335 336 335 335 334 335 335 335 333
312 313 315 316 318 319 319 319 320 320 320 319 320 322 324 326 326 325 325 325 327 329 330 330 330 330 331 332 332 331 329 328 330 331 329 328 329 329 330 331 329 327 324 323 325 326 327 325 322 321 321 319 322 330 334 334 335 334 334 334 335 335
311 311 312 314 315 317 318 319 319 319 319 319 318 318 319 321 323 322 322 322 323 325 328 329 329 331 332 332 331 331 329 327 327 328 328 327 327 328 331 332 332 329 325 323 322 322 323 323 323 321 322 323 320 323 329 330 331 333 334 333 334 335
311 311 311 312 313 315 316 317 318 319 319 319 319 318 318 318 320 320 321 321 320 320 323 325 327 328 330 332 332 331 330 327 326 326 326 326 326 328 332 333 331 329 327 326 324 322 319 318 318 318 320 325 323 320 322 325 325 327 329 329 333 336
312 311 311 312 312 313 315 316 316 317 318 319 319 319 318 318 318 319 319 320 318 317 318 321 324 326 329 330 331 331 331 329 328 327 327 327 327 330 333 333 330 328 327 326 326 326 322 317 314 315 319 326 327 322 320 323 326 327 327 329 331 335
312 312 312 312 312 312 313 314 315 316 317 317 318 318 319 318 318 318 318 320 319 317 316 318 321 325 327 328 329 330 331 331 331 330 329 328 328 330 331 331 329 327 326 326 327 329 326 321 316 315 320 326 329 327 322 322 325 326 327 328 329 332
312 312 312 312 312 312 313 313 314 315 315 316 317 317 318 318 318 318 318 318 319 320 318 318 321 324 326 326 327 327 330 331 332 332 330 328 328 329 329 329 328 327 328 327 328 329 328 324 320 317 319 325 330 331 326 323 323 323 322 322 323 326
311 312 312 312 312 313 313 313 313 313 314 315 315 316 317 317 318 318 318 317 318 319 320 321 324 326 328 327 325 325 326 329 331 330 328 327 327 328 328 328 327 327 327 328 328 327 327 326 324 320 319 322 327 330 328 325 323 322 321 319 319 319
Wind_Speed
23 26 27 27 25 22 22 25 23 21 21 21 18 18 21 24 25 26 26 26 26 26 25 24 23 23 25 27 27 26 25 23 23 22 21 21 21 21 22 21 20 19 18 15 13 13 13 12 11 8 6 4 5 6 6 6 8 8 9 9 9 9
23 28 29 28 28 28 27 28 27 25 23 22 20 19 21 24 26 27 27 26 26 26 25 25 23 23 25 27 27 26 24 23 22 21 20 20 20 21 20 19 17 16 15 13 11 11 12 12 11 8 5 5 7 7 5 6 6 7 9 9 9 9
25 29 30 28 30 33 34 33 32 32 28 24 21 20 21 24 26 27 27 26 26 26 26 25 23 23 25 27 27 25 24 23 21 20 20 20 20 20 19 16 14 13 12 11 10 9 9 10 8 7 5 6 8 7 5 5 5 6 8 8 9 8
25 29 31 30 30 33 37 36 35 34 32 27 22 21 21 24 26 27 27 26 26 27 26 25 23 23 25 26 26 25 24 22 21 20 19 20 20 20 18 14 12 12 11 8 7 6 7 7 6 4 4 6 7 6 4 4 4 5 6 8 8 8
28 30 31 31 32 35 37 38 38 36 34 30 24 22 22 24 26 27 27 26 26 27 26 25 24 24 25 26 26 24 23 22 21 19 19 19 19 19 17 12 11 11 10 7 5 4 4 5 5 3 3 6 7 5 4 4 3 4 5 7 8 7
31 32 32 31 32 35 37 38 39 38 36 31 26 25 25 26 27 27 28 27 26 27 26 26 25 24 25 25 25 24 23 21 20 19 19 19 18 18 15 12 11 9 9 8 4 2 2 5 7 4 2 5 7 5 5 4 2 3 5 6 7 7
30 29 31 32 31 33 35 35 36 37 36 31 28 27 27 29 29 29 29 29 27 27 27 26 25 24 25 25 24 23 22 21 20 18 18 19 18 18 14 12 11 9 7 6 4 3 3 8 10 5 3 6 7 5 5 5 3 3 5 6 7 6
28 28 29 31 32 32 32 33 32 32 33 31 29 28 28 30 31 31 31 30 28 28 27 27 25 25 25 24 23 21 21 20 19 18 18 18 19 18 14 13 12 9 7 6 6 3 5 9 10 6 5 6 7 6 6 6 5 4 5 5 6 5
25 28 31 32 31 32 31 31 31 31 32 31 29 28 27 30 32 33 32 31 29 29 28 27 26 25 25 24 22 21 20 19 18 18 17 18 20 19 14 13 12 8 7 7 5 2 5 8 9 7 6 7 7 6 6 7 6 4 4 5 5 4
23 26 31 32 30 30 32 32 33 34 33 31 28 27 27 29 32 34 33 31 30 29 29 27 26 25 24 23 22 20 19 18 17 17 18 18 19 19 15 13 11 8 7 5 2 4 5 7 9 7 6 7 6 5 6 7 7 5 3 4 4 4
21 27 29 32 32 31 32 35 36 34 32 30 27 26 27 30 32 34 33 31 30 29 28 27 25 24 23 22 21 20 18 17 17 17 17 18 19 19 16 15 11 8 6 3 1 5 3 4 8 6 6 7 6 5 5 7 8 5 3 4 4 3
17 25 28 28 30 33 33 34 35 31 30 30 26 24 26 29 31 33 33 31 30 28 28 27 25 23 22 21 20 19 18 17 17 16 17 17 18 18 16 16 12 8 7 2 1 6 0 2 7 5 7 7 5 5 5 6 8 6 4 4 3 3
13 22 31 29 27 31 33 33 33 30 30 30 26 22 24 27 29 31 32 31 30 28 27 26 24 22 21 20 18 18 17 16 16 15 16 17 18 18 16 17 14 9 7 1 0 7 3 4 7 6 7 6 5 5 5 5 7 7 4 4 3 3
9 16 26 29 29 31 34 34 32 28 27 28 26 23 23 25 27 29 30 31 29 28 27 25 23 21 20 19 18 16 17 16 15 14 15 16 18 17 15 16 15 11 7 1 2 6 6 7 7 6 7 6 6 5 5 5 5 6 5 4 3 3
8 13 15 23 31 33 34 32 28 25 23 25 25 24 25 25 26 27 29 29 28 28 27 24 22 21 20 18 17 16 16 16 14 14 15 15 16 16 15 14 15 13 8 4 4 7 6 5 5 6 7 7 6 6 6 5 5 5 4 4 3 3
6 11 13 22 32 32 31 29 27 25 24 25 26 25 26 25 25 27 29 28 27 27 27 25 22 21 19 17 17 16 15 14 13 13 12 13 13 15 16 14 15 14 9 7 5 6 5 2 4 7 7 7 5 5 5 5 4 4 4 4 3 2
3 10 15 21 29 28 28 29 28 27 27 28 28 26 25 25 23 25 29 29 27 27 26 24 22 20 18 17 17 16 14 13 13 12 11 13 12 13 17 15 15 14 11 8 6 4 3 2 6 8 7 7 5 4 4 4 3 3 4 4 3 2
2 9 12 15 23 25 24 28 30 29 28 27 27 26 25 24 22 23 27 29 28 27 25 24 22 20 19 18 17 16 14 14 15 13 12 14 14 13 16 15 14 14 12 11 9 5 3 2 6 7 7 6 4 3 3 3 2 3 3 4 3 2
2 4 9 10 17 21 19 22 25 26 26 25 24 24 25 23 21 21 25 29 29 27 26 25 24 22 21 20 19 18 16 16 17 16 14 16 16 14 14 14 13 14 14 13 12 9 6 4 6 8 7 6 4 2 2 1 1 2 3 3 3 2
3 1 4 8 14 18 17 18 19 21 25 25 23 23 25 23 20 20 22 26 28 28 27 26 24 23 23 21 20 20 19 18 18 18 17 18 18 17 15 14 13 14 14 14 15 13 7 5 8 11 9 8 6 3 0 2 2 2 2 3 2 2
4 2 1 4 11 15 16 16 16 18 20 22 22 23 26 24 20 21 21 22 25 26 26 26 24 24 25 23 22 23 22 19 19 20 19 18 19 19 17 16 14 15 15 14 15 14 9 7 9 14 13 12 9 6 3 2 3 2 2 3 3 3
7 3 3 1 5 10 15 17 18 19 18 17 18 21 25 25 23 22 21 21 23 24 25 26 26 25 27 27 24 24 25 22 20 21 21 19 19 20 19 18 17 16 16 16 15 15 12 10 11 15 15 14 13 8 6 5 5 4 3 4 4 4
11 7 4 2 1 6 14 19 20 21 21 20 19 20 21 23 25 24 21 21 21 22 23 24 25 25 28 30 27 25 27 26 23 21 22 21 20 20 20 19 18 17 16 17 18 16 15 12 13 17 16 14 14 12 10 9 8 7 5 5 6 6
13 12 8 3 1 4 10 16 18 20 22 22 22 21 20 20 23 25 22 21 21 21 21 21 22 23 26 30 31 29 28 28 27 25 24 23 23 22 21 21 19 17 16 18 19 18 17 14 13 18 18 14 12 12 12 12 11 10 8 8 8 8
12 13 12 8 4 2 5 11 13 14 19 22 22 22 22 21 21 23 23 22 22 21 21 21 21 21 22 27 31 32 30 29 29 28 28 27 26 24 23 22 21 19 18 18 19 18 17 16 15 18 20 15 10 12 13 13 12 12 11 11 10 10
12 12 12 11 9 5 1 7 8 9 15 21 23 23 23 23 22 22 22 22 22 22 21 21 22 21 20 23 27 31 31 30 28 28 29 30 30 28 25 22 21 22 21 19 19 20 19 17 16 18 22 20 14 14 14 12 12 13 13 13 12 11
10 10 10 10 10 8 4 2 6 8 12 17 20 21 22 22 22 21 20 20 21 22 22 21 22 22 22 22 24 27 29 30 29 27 27 28 30 31 29 25 22 21 22 21 20 22 22 19 18 18 20 21 19 18 16 13 13 13 13 15 15 14
9 7 6 6 7 8 7 4 3 6 9 12 15 16 17 18 19 19 18 19 20 20 21 22 21 22 22 23 24 24 25 27 29 28 26 26 27 29 30 29 26 23 23 23 22 23 23 22 21 20 19 20 21 20 18 16 15 13 14 16 16 16
9 7 6 4 4 4 5 5 4 5 8 9 11 13 13 13 15 16 16 17 18 19 20 21 21 22 23 24 24 24 24 25 27 28 27 27 26 26 27 28 30 29 26 26 25 24 24 25 24 22 20 20 22 22 20 19 16 14 15 17 17 16
12 10 7 6 4 3 2 3 4 5 8 9 10 12 13 12 13 15 15 14 16 17 19 20 21 23 25 26 26 26 26 26 26 27 27 27 26 25 25 26 28 30 30 28 28 28 28 27 26 25 24 22 23 24 23 22 20 17 17 18 19 18
15 13 10 8 6 5 4 2 2 4 6 8 10 13 14 14 14 17 17 16 16 17 18 19 20 22 25 27 27 28 28 28 28 27 27 28 27 26 26 25 26 28 29 28 28 30 32 32 30 28 27 25 24 25 25 24 23 22 20 19 20 19
17 15 13 11 8 8 7 5 4 4 4 5 8 11 15 17 17 18 19 18 18 19 19 19 19 20 22 24 26 27 28 29 29 30 29 29 29 28 26 25 24 24 25 26 26 28 32 35 34 33 31 28 26 27 28 27 26 26 24 21 20 20
19 18 16 14 11 10 9 8 7 5 5 5 6 9 12 16 18 19 20 19 19 20 21 21 20 20 20 21 24 25 27 28 29 30 30 30 30 29 27 25 24 23 23 24 24 26 29 32 34 35 33 30 28 29 30 29 28 28 28 25 22 21
17 17 17 16 13 11 10 10 9 8 7 7 7 7 9 13 16 18 20 20 20 21 22 22 22 22 20 20 22 24 25 27 28 28 28 29 30 29 27 26 25 24 24 24 24 25 27 29 32 33 32 31 29 30 31 29 28 28 28 27 25 23
14 14 15 14 13 12 11 11 10 10 10 9 8 8 8 11 14 17 19 21 21 22 23 24 24 23 22 21 21 22 24 26 27 26 27 28 29 28 27 26 26 25 24 24 25 25 26 28 31 32 31 31 29 29 31 31 29 28 28 27 26 26
14 12 12 12 11 11 11 11 11 11 11 11 10 9 10 11 12 15 17 20 21 22 24 25 25 24 23 23 23 22 22 24 26 26 26 27 28 28 27 28 27 25 23 23 24 25 25 27 30 32 32 31 30 30 31 32 32 32 30 28 27 27
17 13 12 11 11 11 10 11 12 12 12 12 11 11 12 12 13 14 15 18 20 22 24 25 25 24 23 24 25 24 24 24 25 26 27 27 27 27 27 28 27 25 23 22 24 25 26 26 28 31 33 33 33 33 32 33 34 34 33 31 29 29
Wind_Direction
196 199 199 192 186 184 184 184 185 190 189 188 188 188 187 184 182 182 182 181 177 174 174 176 174 171 165 162 162 159 157 153 150 146 142 139 134 127 124 122 116 115 116 110 109 107 108 108 107 107 105 95 77 78 74 68 72 70 72 76 76 77
202 202 200 192 184 179 183 186 184 185 189 189 188 189 188 185 183 182 184 184 179 176 176 178 176 171 166 165 164 162 160 157 154 150 146 143 137 132 128 123 114 112 115 112 108 104 106 107 105 106 97 78 80 87 74 64 71 71 67 71 80 83
206 202 199 191 186 181 180 185 184 183 186 187 189 190 189 188 185 183 186 185 180 179 179 180 178 172 169 169 168 165 164 162 159 155 151 147 142 137 132 122 110 107 112 118 118 109 109 112 103 94 78 68 84 92 68 61 74 70 63 71 84 84
210 203 197 188 187 185 181 183 184 183 183 183 190 190 188 191 189 186 187 186 183 181 181 183 181 175 172 173 172 170 169 169 165 160 157 152 147 144 136 120 108 108 111 117 122 117 120 127 121 91 55 61 86 91 62 59 73 68 58 67 83 83
210 202 195 188 186 187 184 183 183 185 183 181 188 190 188 191 191 190 187 187 186 183 184 185 184 179 177 177 176 175 174 174 172 165 161 158 153 149 142 124 115 116 114 108 98 107 130 151 156 131 45 58 87 89 59 56 70 64 52 61 80 84
208 199 191 188 188 188 188 186 184 185 184 180 186 189 189 191 193 192 188 188 188 186 186 187 186 182 181 181 180 180 178 180 178 171 166 164 159 154 148 131 125 121 112 103 73 63 133 177 184 162 70 69 88 89 61 57 74 57 44 58 75 85
213 202 193 187 188 192 192 191 187 184 182 181 185 189 191 192 193 193 191 190 189 188 188 188 187 183 182 182 183 183 182 185 183 177 173 169 165 159 151 139 135 126 113 93 33 8 118 168 184 166 106 90 93 91 69 58 64 45 36 56 74 86
217 205 199 189 188 195 194 195 192 186 184 184 186 190 192 192 192 193 193 190 189 189 189 190 187 184 183 181 183 185 185 188 187 185 180 176 171 164 156 148 141 130 113 70 27 31 117 151 167 151 107 96 98 91 71 59 55 43 35 54 75 89
222 203 199 193 189 192 193 195 196 191 187 188 191 193 194 194 192 192 194 191 189 190 190 191 188 186 186 183 184 185 186 188 188 189 186 182 177 172 167 155 146 135 107 56 26 75 112 136 144 128 98 86 95 90 68 58 50 44 42 56 76 95
231 208 196 193 192 192 193 194 197 196 191 190 193 196 197 196 194 193 193 190 188 190 192 193 190 189 189 187 187 187 187 187 189 191 188 186 181 180 179 164 151 134 105 38 12 129 101 130 138 115 92 80 90 92 69 55 47 47 51 59 70 93
239 218 198 190 193 195 197 197 198 196 189 189 194 197 200 198 195 194 192 189 189 190 193 196 193 193 194 192 192 191 191 190 192 191 189 188 185 186 186 173 159 135 120 27 44 151 90 138 151 120 96 84 86 91 73 59 48 47 57 63 63 77
255 231 206 191 195 198 201 203 202 196 187 191 197 199 202 199 195 194 192 189 189 190 193 197 196 195 198 198 197 197 197 196 197 194 190 188 187 188 186 180 171 148 144 33 72 166 205 205 169 131 109 94 87 92 81 69 50 44 55 65 66 77
265 234 210 198 198 199 202 205 202 194 186 189 195 201 205 201 196 194 193 190 189 191 193 198 198 196 199 202 202 203 204 201 199 200 194 188 189 188 183 183 180 164 158 7 284 170 185 199 170 133 123 108 95 98 83 73 50 42 54 69 71 80
245 218 211 208 204 198 201 203 199 193 186 187 192 199 204 201 197 194 193 192 190 190 192 197 199 198 201 203 204 207 210 206 200 201 195 188 192 190 185 186 184 174 167 132 106 153 170 177 159 142 140 123 105 97 79 70 49 40 50 68 71 73
223 214 215 212 206 199 201 203 200 197 192 193 195 196 198 196 195 193 192 192 191 192 192 195 199 201 203 204 204 206 208 205 197 196 191 186 192 193 192 192 186 182 178 160 127 136 154 165 164 161 152 136 112 92 76 61 43 41 44 57 65 72
225 215 201 199 198 196 198 197 198 198 195 198 197 194 195 194 193 192 191 190 191 194 194 196 199 202 204 205 206 205 200 195 191 194 193 191 194 193 196 196 189 190 186 177 162 141 135 132 184 177 159 145 116 83 72 56 42 38 33 46 55 63
240 213 190 187 191 191 191 189 193 195 194 196 191 189 193 193 195 193 190 189 189 193 196 199 202 203 203 203 205 204 196 190 191 199 203 203 202 196 197 197 192 195 193 186 185 170 141 127 175 180 167 152 119 77 61 50 50 39 22 27 36 43
274 222 204 188 185 186 184 183 188 188 191 194 189 188 193 194 198 197 192 191 191 193 195 200 205 207 206 205 204 203 205 204 200 205 211 210 210 204 200 201 198 202 201 193 190 191 211 197 176 180 172 157 129 90 53 35 48 37 17 15 22 22
19 230 227 208 185 182 179 179 184 185 188 192 192 193 194 194 198 200 198 196 196 196 197 200 205 209 212 211 205 202 212 218 211 210 214 210 211 213 211 210 207 210 210 200 198 211 241 243 199 189 177 162 148 118 28 359 20 24 13 12 15 4
32 4 241 217 189 183 182 182 187 192 193 194 198 200 197 195 202 207 205 203 202 202 203 204 208 211 213 214 207 203 211 219 214 214 217 213 212 215 218 217 211 214 220 211 208 218 241 245 204 190 180 169 158 147 69 321 311 344 1 355 355 340
49 42 339 223 195 185 188 196 201 209 206 200 204 206 203 204 212 213 209 208 208 208 209 211 213 215 213 211 209 208 211 215 212 213 220 220 215 215 217 220 216 215 222 219 211 214 229 241 206 188 180 175 170 171 182 232 271 282 318 318 323 319
46 62 42 334 206 188 192 200 207 219 223 218 216 214 212 215 217 212 210 213 213 212 215 216 217 218 216 213 210 212 215 215 211 209 215 219 216 214 213 218 222 221 225 223 214 214 228 241 221 202 191 179 174 180 196 213 234 239 256 282 295 299
37 41 48 40 209 193 193 197 201 208 217 225 230 227 221 220 218 213 211 213 215 217 218 219 220 219 217 217 214 214 217 217 214 210 212 215 217 217 216 218 222 223 226 224 220 222 230 240 229 211 198 185 185 190 198 211 224 233 241 255 272 281
32 32 30 30 278 209 188 195 199 195 200 213 224 230 230 224 216 213 213 217 220 221 220 219 220 219 219 220 219 218 220 220 219 217 215 216 219 222 223 224 226 225 223 221 222 226 231 238 232 210 197 188 189 190 201 217 222 225 236 243 254 266
27 30 25 22 356 291 185 196 206 199 204 211 213 219 224 223 217 214 218 223 224 224 224 222 220 219 220 221 221 223 224 223 222 222 222 221 222 224 227 230 232 231 227 222 222 227 231 235 234 219 209 200 191 196 215 229 224 221 232 238 247 257
26 28 23 20 15 3 188 200 213 213 219 221 216 216 218 220 220 220 223 225 225 224 224 224 223 221 221 222 223 225 226 226 224 223 224 226 227 226 227 229 231 232 232 229 227 228 230 232 233 224 217 219 232 240 238 232 221 223 230 233 241 248
23 31 29 19 14 9 4 227 217 219 225 225 223 223 222 221 222 224 227 227 228 227 225 228 228 225 223 222 224 225 226 227 226 224 223 226 229 228 226 226 227 229 232 234 234 232 230 230 231 227 222 225 237 249 253 244 232 231 230 228 233 241
6 23 34 26 19 14 4 343 257 230 231 228 225 226 227 224 220 223 228 227 230 231 231 234 233 232 230 225 224 226 227 226 225 226 226 226 228 229 228 227 225 225 229 234 237 238 236 234 233 231 228 227 231 241 251 253 250 249 246 238 234 237
332 347 4 5 18 23 6 344 306 254 238 234 228 224 226 223 214 217 224 223 225 230 234 237 237 237 237 232 227 226 225 224 224 225 226 226 227 228 229 227 225 224 227 232 236 238 240 239 238 237 235 231 231 237 242 243 247 255 256 249 242 241
317 315 323 328 330 335 349 353 326 284 256 249 239 227 227 225 215 216 222 221 222 228 231 234 236 237 239 236 232 229 227 226 225 225 225 226 225 225 226 225 223 223 225 229 232 235 238 240 241 242 243 238 231 231 233 233 238 246 254 253 249 252
326 312 301 298 299 297 296 299 318 302 278 266 253 240 235 232 228 229 233 231 230 231 230 232 235 236 237 236 235 234 233 230 228 228 227 225 223 223 225 225 224 224 224 225 228 231 234 237 240 243 246 243 235 231 233 235 239 243 250 255 251 250
338 328 311 295 285 281 282 274 272 276 280 282 267 253 244 239 236 237 241 241 236 233 232 233 236 238 238 237 238 238 237 233 229 230 230 229 227 226 227 227 226 226 226 227 228 229 231 233 236 240 244 244 239 234 235 240 245 245 249 258 256 249
338 335 326 313 294 277 271 270 272 266 265 273 271 264 254 248 244 241 242 242 238 235 235 234 234 236 238 240 241 241 239 236 232 232 234 233 230 228 228 227 226 228 231 233 233 230 230 231 233 236 240 244 243 238 236 238 245 249 252 256 253 250
337 335 331 324 309 287 271 266 266 265 264 266 265 264 261 258 254 249 247 243 236 234 236 237 235 234 238 241 243 242 240 238 236 236 237 236 232 229 228 228 229 234 239 241 240 236 232 230 231 233 236 242 245 242 237 235 238 245 251 252 247 246
339 342 337 330 320 303 284 273 266 262 263 264 263 261 259 261 259 254 253 248 240 233 234 237 238 237 238 240 243 244 243 239 237 238 239 239 236 232 229 231 234 238 240 240 241 241 239 234 231 231 233 237 242 242 237 234 234 237 244 249 247 245
336 337 334 332 329 320 304 289 279 271 266 262 262 262 261 262 261 258 256 253 248 239 235 238 241 241 239 238 239 243 245 241 237 237 240 240 238 234 232 233 234 236 237 237 237 240 243 242 237 233 232 233 236 239 238 237 237 238 242 246 248 248
337 326 323 325 330 329 320 306 292 282 273 266 262 263 263 263 262 261 258 255 253 245 239 240 242 243 241 238 238 241 243 241 238 237 237 239 238 235 233 233 233 234 235 235 236 238 243 247 244 238 235 233 233 236 238 239 240 241 243 245 246 249